Time,TemperatureF,DewpointF,PressureIn,WindDirection,WindDirectionDegrees,WindSpeedMPH,WindSpeedGustMPH,Humidity,HourlyPrecipIn,Conditions,Clouds,dailyrainin,SoftwareType,DateUTC
2013-12-11 00:01:00,19.4,6.9,29.97,ENE,68,0.0,0.0,58,0.00,,,0.00,WUHU216HW,2013-12-11 07:01:00,
2013-12-11 00:06:00,19.3,7.6,29.97,ENE,68,0.0,0.0,60,0.00,,,0.00,WUHU216HW,2013-12-11 07:06:00,
2013-12-11 00:11:00,19.1,7.0,29.97,ENE,68,0.0,0.0,59,0.00,,,0.00,WUHU216HW,2013-12-11 07:11:00,
2013-12-11 00:16:00,19.1,7.0,29.97,ENE,68,0.0,0.0,59,0.00,,,0.00,WUHU216HW,2013-12-11 07:16:00,
2013-12-11 00:21:00,18.9,6.8,29.97,ENE,68,0.0,0.0,59,0.00,,,0.00,WUHU216HW,2013-12-11 07:21:00,
2013-12-11 00:26:00,18.7,7.1,29.97,ENE,68,0.0,0.0,60,0.00,,,0.00,WUHU216HW,2013-12-11 07:26:00,
2013-12-11 00:31:00,18.7,7.1,29.97,ENE,68,0.0,0.0,60,0.00,,,0.00,WUHU216HW,2013-12-11 07:31:00,
2013-12-11 00:36:00,18.5,6.9,29.96,ENE,68,0.0,0.0,60,0.00,,,0.00,WUHU216HW,2013-12-11 07:36:00,
2013-12-11 00:41:00,18.4,6.8,29.96,ENE,68,0.0,0.0,60,0.00,,,0.00,WUHU216HW,2013-12-11 07:41:00,
2013-12-11 00:46:00,18.4,7.1,29.96,ENE,68,0.0,0.0,61,0.00,,,0.00,WUHU216HW,2013-12-11 07:46:00,
2013-12-11 00:51:00,18.2,6.9,29.96,ENE,68,0.0,0.0,61,0.00,,,0.00,WUHU216HW,2013-12-11 07:51:00,
2013-12-11 00:56:00,18.2,6.9,29.96,ENE,68,0.0,0.0,61,0.00,,,0.00,WUHU216HW,2013-12-11 07:56:00,
2013-12-11 01:01:00,18.0,6.8,29.96,ENE,68,0.0,0.0,61,0.00,,,0.00,WUHU216HW,2013-12-11 08:01:00,
2013-12-11 01:06:00,18.0,6.8,29.96,SE,135,0.0,0.0,61,0.00,,,0.00,WUHU216HW,2013-12-11 08:06:00,
2013-12-11 01:11:00,18.0,6.8,29.96,NNE,23,0.0,0.0,61,0.00,,,0.00,WUHU216HW,2013-12-11 08:11:00,
2013-12-11 01:16:00,17.6,6.5,29.96,NNE,23,0.0,0.0,61,0.00,,,0.00,WUHU216HW,2013-12-11 08:16:00,
2013-12-11 01:21:00,17.6,6.5,29.96,SE,135,0.0,0.0,61,0.00,,,0.00,WUHU216HW,2013-12-11 08:21:00,
2013-12-11 01:26:00,17.6,6.5,29.96,SE,135,0.0,0.0,61,0.00,,,0.00,WUHU216HW,2013-12-11 08:26:00,
2013-12-11 01:31:00,17.5,7.3,29.96,ESE,113,0.0,0.0,64,0.00,,,0.00,WUHU216HW,2013-12-11 08:31:00,
2013-12-11 01:36:00,17.5,7.3,29.96,ENE,68,0.0,0.0,64,0.00,,,0.00,WUHU216HW,2013-12-11 08:36:00,
2013-12-11 01:41:00,17.3,6.8,29.96,South,180,0.0,0.0,63,0.00,,,0.00,WUHU216HW,2013-12-11 08:41:00,
2013-12-11 01:46:00,17.3,6.8,29.97,SSE,158,0.0,0.0,63,0.00,,,0.00,WUHU216HW,2013-12-11 08:46:00,
2013-12-11 01:51:00,17.1,6.3,29.97,SSE,158,0.0,0.0,62,0.00,,,0.00,WUHU216HW,2013-12-11 08:51:00,
2013-12-11 01:56:00,17.1,6.3,29.97,SE,135,0.0,0.0,62,0.00,,,0.00,WUHU216HW,2013-12-11 08:56:00,
2013-12-11 02:01:00,16.9,6.1,29.98,SSE,158,0.0,0.0,62,0.00,,,0.00,WUHU216HW,2013-12-11 09:01:00,
2013-12-11 02:06:00,16.9,6.4,29.98,South,180,0.0,0.0,63,0.00,,,0.00,WUHU216HW,2013-12-11 09:06:00,
2013-12-11 02:11:00,16.9,7.1,29.98,South,180,0.0,0.0,65,0.00,,,0.00,WUHU216HW,2013-12-11 09:11:00,
2013-12-11 02:16:00,16.9,6.8,29.98,South,180,0.0,0.0,64,0.00,,,0.00,WUHU216HW,2013-12-11 09:16:00,
2013-12-11 02:21:00,16.9,6.4,29.98,South,180,0.0,0.0,63,0.00,,,0.00,WUHU216HW,2013-12-11 09:21:00,
2013-12-11 02:26:00,16.9,6.4,29.98,ENE,68,0.0,0.0,63,0.00,,,0.00,WUHU216HW,2013-12-11 09:26:00,
2013-12-11 02:31:00,16.9,6.8,29.98,ENE,68,0.0,0.0,64,0.00,,,0.00,WUHU216HW,2013-12-11 09:31:00,
2013-12-11 02:36:00,16.9,6.8,29.97,NE,45,0.0,0.0,64,0.00,,,0.00,WUHU216HW,2013-12-11 09:36:00,
2013-12-11 02:42:00,16.9,7.5,29.98,NE,45,0.0,0.0,66,0.00,,,0.00,WUHU216HW,2013-12-11 09:42:00,
2013-12-11 02:47:00,16.7,6.9,29.97,ENE,68,0.0,0.0,65,0.00,,,0.00,WUHU216HW,2013-12-11 09:47:00,
2013-12-11 02:52:00,16.7,6.9,29.98,ENE,68,0.0,0.0,65,0.00,,,0.00,WUHU216HW,2013-12-11 09:52:00,
2013-12-11 02:57:00,16.6,6.8,29.97,North,0,0.0,0.0,65,0.00,,,0.00,WUHU216HW,2013-12-11 09:57:00,
2013-12-11 03:02:00,16.9,7.1,29.97,North,0,0.0,0.0,65,0.00,,,0.00,WUHU216HW,2013-12-11 10:02:00,
2013-12-11 03:07:00,16.9,7.1,29.98,NW,315,0.0,0.0,65,0.00,,,0.00,WUHU216HW,2013-12-11 10:07:00,
2013-12-11 03:12:00,16.7,6.9,29.98,NW,315,0.0,0.0,65,0.00,,,0.00,WUHU216HW,2013-12-11 10:12:00,
2013-12-11 03:17:00,16.7,7.3,29.98,NW,315,0.0,0.0,66,0.00,,,0.00,WUHU216HW,2013-12-11 10:17:00,
2013-12-11 03:22:00,16.6,7.5,29.98,NW,315,0.0,0.0,67,0.00,,,0.00,WUHU216HW,2013-12-11 10:22:00,
2013-12-11 03:27:00,16.6,7.1,29.98,NNE,23,0.0,0.0,66,0.00,,,0.00,WUHU216HW,2013-12-11 10:27:00,
2013-12-11 03:32:00,16.4,6.9,29.99,SE,135,0.0,0.0,66,0.00,,,0.00,WUHU216HW,2013-12-11 10:32:00,
2013-12-11 03:37:00,16.2,6.4,29.99,SSE,158,0.0,0.0,65,0.00,,,0.00,WUHU216HW,2013-12-11 10:37:00,
2013-12-11 03:42:00,16.2,6.4,29.99,NE,45,0.0,0.0,65,0.00,,,0.00,WUHU216HW,2013-12-11 10:42:00,
2013-12-11 03:47:00,16.0,6.2,29.99,NE,45,0.0,0.0,65,0.00,,,0.00,WUHU216HW,2013-12-11 10:47:00,
2013-12-11 03:52:00,16.2,7.4,29.99,NE,45,0.0,0.0,68,0.00,,,0.00,WUHU216HW,2013-12-11 10:52:00,
2013-12-11 03:57:00,16.0,7.6,29.99,ENE,68,0.0,0.0,69,0.00,,,0.00,WUHU216HW,2013-12-11 10:57:00,
2013-12-11 04:02:00,16.0,7.2,29.99,East,90,0.0,0.0,68,0.00,,,0.00,WUHU216HW,2013-12-11 11:02:00,
2013-12-11 04:07:00,16.0,6.9,29.99,East,90,0.0,0.0,67,0.00,,,0.00,WUHU216HW,2013-12-11 11:07:00,
2013-12-11 04:12:00,15.8,6.8,29.99,East,90,0.0,0.0,67,0.00,,,0.00,WUHU216HW,2013-12-11 11:12:00,
2013-12-11 04:17:00,15.7,6.2,29.99,SE,135,0.0,0.0,66,0.00,,,0.00,WUHU216HW,2013-12-11 11:17:00,
2013-12-11 04:22:00,15.7,6.2,29.99,SE,135,0.0,0.0,66,0.00,,,0.00,WUHU216HW,2013-12-11 11:22:00,
2013-12-11 04:27:00,15.5,6.0,29.99,SE,135,0.0,0.0,66,0.00,,,0.00,WUHU216HW,2013-12-11 11:27:00,
2013-12-11 04:32:00,15.5,6.0,29.99,SSE,158,0.0,0.0,66,0.00,,,0.00,WUHU216HW,2013-12-11 11:32:00,
2013-12-11 04:37:00,15.3,6.2,30.00,SSE,158,0.0,0.0,67,0.00,,,0.00,WUHU216HW,2013-12-11 11:37:00,
2013-12-11 04:42:00,15.3,6.2,30.00,SSE,158,0.0,0.0,67,0.00,,,0.00,WUHU216HW,2013-12-11 11:42:00,
2013-12-11 04:47:00,15.1,6.0,30.00,ENE,68,0.0,0.0,67,0.00,,,0.00,WUHU216HW,2013-12-11 11:47:00,
2013-12-11 04:52:00,15.1,6.0,30.00,North,0,0.0,0.0,67,0.00,,,0.00,WUHU216HW,2013-12-11 11:52:00,
2013-12-11 04:57:00,15.5,7.4,30.00,NNE,23,0.0,1.0,70,0.00,,,0.00,WUHU216HW,2013-12-11 11:57:00,
2013-12-11 05:02:00,16.2,7.7,30.00,North,0,0.0,1.0,69,0.00,,,0.00,WUHU216HW,2013-12-11 12:02:00,
2013-12-11 05:07:00,16.2,7.7,30.01,NNW,338,0.0,1.0,69,0.00,,,0.00,WUHU216HW,2013-12-11 12:07:00,
2013-12-11 05:12:00,16.2,7.4,30.01,NNW,338,1.0,1.0,68,0.00,,,0.00,WUHU216HW,2013-12-11 12:12:00,
2013-12-11 05:17:00,16.2,7.1,30.01,NW,315,1.0,2.0,67,0.00,,,0.00,WUHU216HW,2013-12-11 12:17:00,
2013-12-11 05:22:00,16.2,7.4,30.01,NW,315,0.0,2.0,68,0.00,,,0.00,WUHU216HW,2013-12-11 12:22:00,
2013-12-11 05:27:00,16.2,7.1,30.01,NNW,338,1.0,2.0,67,0.00,,,0.00,WUHU216HW,2013-12-11 12:27:00,
2013-12-11 05:32:00,16.4,7.6,30.01,NW,315,3.0,3.0,68,0.00,,,0.00,WUHU216HW,2013-12-11 12:32:00,
2013-12-11 05:37:00,16.6,7.5,30.01,North,0,1.0,3.0,67,0.00,,,0.00,WUHU216HW,2013-12-11 12:37:00,
2013-12-11 05:42:00,16.6,7.7,30.02,NNW,338,1.0,3.0,68,0.00,,,0.00,WUHU216HW,2013-12-11 12:42:00,
2013-12-11 05:47:00,16.7,7.7,30.02,NW,315,1.0,1.0,67,0.00,,,0.00,WUHU216HW,2013-12-11 12:47:00,
2013-12-11 05:52:00,16.7,7.7,30.02,WNW,293,0.0,1.0,67,0.00,,,0.00,WUHU216HW,2013-12-11 12:52:00,
2013-12-11 05:57:00,16.6,7.1,30.02,NW,315,1.0,1.0,66,0.00,,,0.00,WUHU216HW,2013-12-11 12:57:00,
2013-12-11 06:02:00,16.6,7.1,30.02,NW,315,1.0,1.0,66,0.00,,,0.00,WUHU216HW,2013-12-11 13:02:00,
2013-12-11 06:07:00,16.4,6.9,30.02,NNW,338,0.0,1.0,66,0.00,,,0.00,WUHU216HW,2013-12-11 13:07:00,
2013-12-11 06:13:00,16.4,7.3,30.03,NW,315,1.0,1.0,67,0.00,,,0.00,WUHU216HW,2013-12-11 13:13:00,
2013-12-11 06:18:00,16.6,7.5,30.03,NW,315,1.0,2.0,67,0.00,,,0.00,WUHU216HW,2013-12-11 13:18:00,
2013-12-11 06:23:00,16.6,7.5,30.03,NW,315,1.0,2.0,67,0.00,,,0.00,WUHU216HW,2013-12-11 13:23:00,
2013-12-11 06:28:00,16.4,7.3,30.03,North,0,1.0,2.0,67,0.00,,,0.00,WUHU216HW,2013-12-11 13:28:00,
2013-12-11 06:33:00,16.4,7.3,30.03,NW,315,1.0,2.0,67,0.00,,,0.00,WUHU216HW,2013-12-11 13:33:00,
2013-12-11 06:38:00,16.4,7.3,30.04,NNW,338,1.0,2.0,67,0.00,,,0.00,WUHU216HW,2013-12-11 13:38:00,
2013-12-11 06:43:00,16.6,7.5,30.04,NNW,338,0.0,2.0,67,0.00,,,0.00,WUHU216HW,2013-12-11 13:43:00,
2013-12-11 06:48:00,16.6,7.7,30.04,North,0,0.0,3.0,68,0.00,,,0.00,WUHU216HW,2013-12-11 13:48:00,
2013-12-11 06:53:00,16.9,8.5,30.04,North,0,1.0,3.0,69,0.00,,,0.00,WUHU216HW,2013-12-11 13:53:00,
2013-12-11 06:58:00,17.6,8.8,30.05,NNW,338,4.0,5.0,68,0.00,,,0.00,WUHU216HW,2013-12-11 13:58:00,
2013-12-11 07:03:00,18.4,9.2,30.05,WSW,248,2.0,5.0,67,0.00,,,0.00,WUHU216HW,2013-12-11 14:03:00,
2013-12-11 07:08:00,18.4,8.8,30.05,NW,315,2.0,5.0,66,0.00,,,0.00,WUHU216HW,2013-12-11 14:08:00,
2013-12-11 07:13:00,18.4,8.8,30.05,NNE,23,3.0,4.0,66,0.00,,,0.00,WUHU216HW,2013-12-11 14:13:00,
2013-12-11 07:18:00,18.7,9.2,30.06,NE,45,2.0,4.0,66,0.00,,,0.00,WUHU216HW,2013-12-11 14:18:00,
2013-12-11 07:23:00,18.9,9.0,30.05,NE,45,1.0,3.0,65,0.00,,,0.00,WUHU216HW,2013-12-11 14:23:00,
2013-12-11 07:28:00,19.1,9.1,30.06,NNW,338,1.0,3.0,65,0.00,,,0.00,WUHU216HW,2013-12-11 14:28:00,
2013-12-11 07:33:00,19.1,9.1,30.06,NNE,23,3.0,3.0,65,0.00,,,0.00,WUHU216HW,2013-12-11 14:33:00,
2013-12-11 07:38:00,19.4,9.1,30.06,NNW,338,2.0,4.0,64,0.00,,,0.00,WUHU216HW,2013-12-11 14:38:00,
2013-12-11 07:43:00,19.6,9.3,30.06,NNW,338,1.0,4.0,64,0.00,,,0.00,WUHU216HW,2013-12-11 14:43:00,
2013-12-11 07:48:00,19.6,9.3,30.06,NNW,338,5.0,6.0,64,0.00,,,0.00,WUHU216HW,2013-12-11 14:48:00,
2013-12-11 07:53:00,19.8,9.1,30.06,NNW,338,6.0,7.0,63,0.00,,,0.00,WUHU216HW,2013-12-11 14:53:00,
2013-12-11 07:58:00,19.8,9.1,30.07,NW,315,2.0,9.0,63,0.00,,,0.00,WUHU216HW,2013-12-11 14:58:00,
2013-12-11 08:03:00,19.8,8.8,30.07,NNW,338,2.0,9.0,62,0.00,,,0.00,WUHU216HW,2013-12-11 15:03:00,
2013-12-11 08:08:00,19.8,8.8,30.07,NNW,338,7.0,7.0,62,0.00,,,0.00,WUHU216HW,2013-12-11 15:08:00,
2013-12-11 08:13:00,20.0,9.0,30.07,WNW,293,2.0,7.0,62,0.00,,,0.00,WUHU216HW,2013-12-11 15:13:00,
2013-12-11 08:18:00,20.2,9.2,30.08,NW,315,4.0,6.0,62,0.00,,,0.00,WUHU216HW,2013-12-11 15:18:00,
2013-12-11 08:23:00,20.3,9.4,30.08,West,270,3.0,6.0,62,0.00,,,0.00,WUHU216HW,2013-12-11 15:23:00,
2013-12-11 08:28:00,21.8,10.0,30.08,NNW,338,3.0,6.0,60,0.00,,,0.00,WUHU216HW,2013-12-11 15:28:00,
2013-12-11 08:33:00,23.0,10.4,30.08,West,270,2.0,6.0,58,0.00,,,0.00,WUHU216HW,2013-12-11 15:33:00,
2013-12-11 08:38:00,23.9,11.6,30.08,NE,45,3.0,7.0,59,0.00,,,0.00,WUHU216HW,2013-12-11 15:38:00,
2013-12-11 08:43:00,24.7,12.0,30.08,NNW,338,3.0,7.0,58,0.00,,,0.00,WUHU216HW,2013-12-11 15:43:00,
2013-12-11 08:48:00,24.1,10.2,30.08,North,0,4.0,7.0,55,0.00,,,0.00,WUHU216HW,2013-12-11 15:48:00,
2013-12-11 08:53:00,24.3,11.6,30.09,NW,315,5.0,7.0,58,0.00,,,0.00,WUHU216HW,2013-12-11 15:53:00,
2013-12-11 08:59:00,25.2,11.6,30.09,North,0,1.0,6.0,56,0.00,,,0.00,WUHU216HW,2013-12-11 15:59:00,
2013-12-11 09:04:00,25.6,11.2,30.09,North,0,2.0,5.0,54,0.00,,,0.00,WUHU216HW,2013-12-11 16:04:00,
2013-12-11 09:09:00,26.3,12.2,30.10,WNW,293,2.0,5.0,55,0.00,,,0.00,WUHU216HW,2013-12-11 16:09:00,
2013-12-11 09:14:00,26.6,11.7,30.10,NW,315,3.0,5.0,53,0.00,,,0.00,WUHU216HW,2013-12-11 16:14:00,
2013-12-11 09:19:00,26.5,11.1,30.10,WNW,293,5.0,6.0,52,0.00,,,0.00,WUHU216HW,2013-12-11 16:19:00,
2013-12-11 09:24:00,27.0,11.6,30.10,NNW,338,2.0,6.0,52,0.00,,,0.00,WUHU216HW,2013-12-11 16:24:00,
2013-12-11 09:29:00,27.7,12.8,30.10,WNW,293,4.0,9.0,53,0.00,,,0.00,WUHU216HW,2013-12-11 16:29:00,
2013-12-11 09:34:00,28.8,13.0,30.10,NW,315,4.0,9.0,51,0.00,,,0.00,WUHU216HW,2013-12-11 16:34:00,
2013-12-11 09:39:00,29.0,12.3,30.10,North,0,3.0,6.0,49,0.00,,,0.00,WUHU216HW,2013-12-11 16:39:00,
2013-12-11 09:44:00,28.6,11.4,30.10,ENE,68,6.0,6.0,48,0.00,,,0.00,WUHU216HW,2013-12-11 16:44:00,
2013-12-11 09:49:00,28.4,11.3,30.11,North,0,2.0,7.0,48,0.00,,,0.00,WUHU216HW,2013-12-11 16:49:00,
2013-12-11 09:54:00,29.0,10.7,30.11,NNE,23,4.0,7.0,46,0.00,,,0.00,WUHU216HW,2013-12-11 16:54:00,
2013-12-11 09:59:00,29.3,11.1,30.11,NNE,23,8.0,8.0,46,0.00,,,0.00,WUHU216HW,2013-12-11 16:59:00,
2013-12-11 10:04:00,29.5,10.7,30.12,North,0,7.0,8.0,45,0.00,,,0.00,WUHU216HW,2013-12-11 17:04:00,
2013-12-11 10:09:00,29.9,10.5,30.11,NNE,23,3.0,8.0,44,0.00,,,0.00,WUHU216HW,2013-12-11 17:09:00,
2013-12-11 10:14:00,30.2,11.3,30.11,North,0,3.0,6.0,45,0.00,,,0.00,WUHU216HW,2013-12-11 17:14:00,
2013-12-11 10:19:00,30.6,10.6,30.11,North,0,3.0,7.0,43,0.00,,,0.00,WUHU216HW,2013-12-11 17:19:00,
2013-12-11 10:24:00,31.0,11.5,30.11,NNW,338,6.0,7.0,44,0.00,,,0.00,WUHU216HW,2013-12-11 17:24:00,
2013-12-11 10:29:00,31.3,11.4,30.11,North,0,6.0,6.0,43,0.00,,,0.00,WUHU216HW,2013-12-11 17:29:00,
2013-12-11 10:34:00,31.3,11.4,30.11,North,0,3.0,6.0,43,0.00,,,0.00,WUHU216HW,2013-12-11 17:34:00,
2013-12-11 10:39:00,31.5,11.0,30.11,North,0,4.0,6.0,42,0.00,,,0.00,WUHU216HW,2013-12-11 17:39:00,
2013-12-11 10:44:00,32.0,12.0,30.11,NE,45,0.0,6.0,43,0.00,,,0.00,WUHU216HW,2013-12-11 17:44:00,
2013-12-11 10:49:00,32.2,12.2,30.11,North,0,0.0,6.0,43,0.00,,,0.00,WUHU216HW,2013-12-11 17:49:00,
2013-12-11 10:54:00,33.1,14.0,30.11,NNW,338,3.0,6.0,45,0.00,,,0.00,WUHU216HW,2013-12-11 17:54:00,
2013-12-11 10:59:00,34.2,14.0,30.11,NNW,338,1.0,5.0,43,0.00,,,0.00,WUHU216HW,2013-12-11 17:59:00,
2013-12-11 11:04:00,34.4,13.6,30.11,NNW,338,3.0,5.0,42,0.00,,,0.00,WUHU216HW,2013-12-11 18:04:00,
2013-12-11 11:09:00,34.6,13.8,30.11,WNW,293,1.0,4.0,42,0.00,,,0.00,WUHU216HW,2013-12-11 18:09:00,
2013-12-11 11:14:00,35.1,14.8,30.11,WNW,293,3.0,6.0,43,0.00,,,0.00,WUHU216HW,2013-12-11 18:14:00,
2013-12-11 11:19:00,35.6,15.2,30.11,West,270,1.0,6.0,43,0.00,,,0.00,WUHU216HW,2013-12-11 18:19:00,
2013-12-11 11:24:00,36.4,15.9,30.10,SSE,158,1.0,5.0,43,0.00,,,0.00,WUHU216HW,2013-12-11 18:24:00,
2013-12-11 11:29:00,36.7,16.2,30.10,West,270,1.0,3.0,43,0.00,,,0.00,WUHU216HW,2013-12-11 18:29:00,
2013-12-11 11:34:00,37.1,16.6,30.10,WSW,248,2.0,3.0,43,0.00,,,0.00,WUHU216HW,2013-12-11 18:34:00,
2013-12-11 11:39:00,37.8,17.7,30.10,WNW,293,1.0,3.0,44,0.00,,,0.00,WUHU216HW,2013-12-11 18:39:00,
2013-12-11 11:44:00,38.2,17.6,30.10,WNW,293,3.0,3.0,43,0.00,,,0.00,WUHU216HW,2013-12-11 18:44:00,
2013-12-11 11:49:00,38.5,17.3,30.09,WSW,248,1.0,3.0,42,0.00,,,0.00,WUHU216HW,2013-12-11 18:49:00,
2013-12-11 11:54:00,38.5,17.3,30.09,WNW,293,2.0,3.0,42,0.00,,,0.00,WUHU216HW,2013-12-11 18:54:00,
2013-12-11 11:59:00,38.5,16.3,30.09,West,270,3.0,4.0,40,0.00,,,0.00,WUHU216HW,2013-12-11 18:59:00,
2013-12-11 12:04:00,38.7,16.5,30.08,WNW,293,0.0,4.0,40,0.00,,,0.00,WUHU216HW,2013-12-11 19:04:00,
2013-12-11 12:09:00,39.1,16.1,30.08,WSW,248,2.0,3.0,39,0.00,,,0.00,WUHU216HW,2013-12-11 19:09:00,
2013-12-11 12:14:00,38.5,14.3,30.08,NE,45,3.0,3.0,37,0.00,,,0.00,WUHU216HW,2013-12-11 19:14:00,
2013-12-11 12:19:00,38.5,15.7,30.08,NW,315,3.0,4.0,39,0.00,,,0.00,WUHU216HW,2013-12-11 19:19:00,
2013-12-11 12:24:00,38.9,15.3,30.08,NNW,338,2.0,4.0,38,0.00,,,0.00,WUHU216HW,2013-12-11 19:24:00,
2013-12-11 12:29:00,39.4,16.5,30.08,West,270,0.0,4.0,39,0.00,,,0.00,WUHU216HW,2013-12-11 19:29:00,
2013-12-11 12:34:00,39.8,16.7,30.08,WSW,248,0.0,4.0,39,0.00,,,0.00,WUHU216HW,2013-12-11 19:34:00,
2013-12-11 12:39:00,40.5,18.1,30.08,NW,315,0.0,2.0,40,0.00,,,0.00,WUHU216HW,2013-12-11 19:39:00,
2013-12-11 12:44:00,40.3,15.9,30.07,North,0,2.0,4.0,37,0.00,,,0.00,WUHU216HW,2013-12-11 19:44:00,
2013-12-11 12:49:00,40.1,16.5,30.07,WNW,293,2.0,4.0,38,0.00,,,0.00,WUHU216HW,2013-12-11 19:49:00,
2013-12-11 12:54:00,40.3,15.9,30.07,SSW,203,0.0,3.0,37,0.01,,,0.01,WUHU216HW,2013-12-11 19:54:00,
2013-12-11 12:59:00,40.7,16.3,30.07,West,270,2.0,3.0,37,0.01,,,0.01,WUHU216HW,2013-12-11 19:59:00,
2013-12-11 13:04:00,40.7,15.7,30.07,West,270,1.0,3.0,36,0.01,,,0.01,WUHU216HW,2013-12-11 20:04:00,
2013-12-11 13:09:00,40.9,16.5,30.07,NW,315,2.0,5.0,37,0.01,,,0.01,WUHU216HW,2013-12-11 20:09:00,
2013-12-11 13:14:00,41.0,15.9,30.07,West,270,5.0,6.0,36,0.01,,,0.01,WUHU216HW,2013-12-11 20:14:00,
2013-12-11 13:19:00,41.2,16.7,30.07,West,270,2.0,6.0,37,0.01,,,0.01,WUHU216HW,2013-12-11 20:19:00,
2013-12-11 13:24:00,41.4,16.9,30.07,West,270,3.0,6.0,37,0.01,,,0.01,WUHU216HW,2013-12-11 20:24:00,
2013-12-11 13:29:00,41.6,16.4,30.07,WNW,293,1.0,6.0,36,0.01,,,0.01,WUHU216HW,2013-12-11 20:29:00,
2013-12-11 13:34:00,41.8,16.6,30.07,NW,315,4.0,7.0,36,0.01,,,0.01,WUHU216HW,2013-12-11 20:34:00,
2013-12-11 13:39:00,41.8,15.3,30.07,North,0,3.0,7.0,34,0.01,,,0.01,WUHU216HW,2013-12-11 20:39:00,
2013-12-11 13:44:00,41.9,16.0,30.07,NW,315,4.0,8.0,35,0.01,,,0.01,WUHU216HW,2013-12-11 20:44:00,
2013-12-11 13:49:00,41.8,15.9,30.07,NNW,338,5.0,8.0,35,0.01,,,0.01,WUHU216HW,2013-12-11 20:49:00,
2013-12-11 13:54:00,41.6,14.5,30.06,WNW,293,3.0,8.0,33,0.00,,,0.01,WUHU216HW,2013-12-11 20:54:00,
2013-12-11 13:59:00,41.6,14.5,30.07,North,0,2.0,7.0,33,0.00,,,0.01,WUHU216HW,2013-12-11 20:59:00,
2013-12-11 14:04:00,41.6,14.5,30.06,NNW,338,3.0,7.0,33,0.00,,,0.01,WUHU216HW,2013-12-11 21:04:00,
2013-12-11 14:09:00,41.8,14.6,30.06,NNE,23,2.0,6.0,33,0.00,,,0.01,WUHU216HW,2013-12-11 21:09:00,
2013-12-11 14:14:00,41.9,13.4,30.06,North,0,2.0,6.0,31,0.00,,,0.01,WUHU216HW,2013-12-11 21:14:00,
2013-12-11 14:19:00,41.8,13.3,30.06,North,0,2.0,6.0,31,0.00,,,0.01,WUHU216HW,2013-12-11 21:19:00,
2013-12-11 14:24:00,41.6,13.8,30.06,North,0,1.0,4.0,32,0.01,,,0.02,WUHU216HW,2013-12-11 21:24:00,
2013-12-11 14:29:00,41.9,14.8,30.06,NW,315,2.0,5.0,33,0.01,,,0.02,WUHU216HW,2013-12-11 21:29:00,
2013-12-11 14:34:00,42.3,15.0,30.06,NW,315,4.0,5.0,33,0.01,,,0.02,WUHU216HW,2013-12-11 21:34:00,
2013-12-11 14:39:00,42.7,15.4,30.06,NNW,338,2.0,5.0,33,0.01,,,0.02,WUHU216HW,2013-12-11 21:39:00,
2013-12-11 14:44:00,42.8,14.1,30.06,NW,315,3.0,6.0,31,0.01,,,0.02,WUHU216HW,2013-12-11 21:44:00,
2013-12-11 14:49:00,42.8,14.9,30.06,WSW,248,2.0,6.0,32,0.01,,,0.02,WUHU216HW,2013-12-11 21:49:00,
2013-12-11 14:54:00,42.8,15.5,30.06,NW,315,3.0,4.0,33,0.01,,,0.02,WUHU216HW,2013-12-11 21:54:00,
2013-12-11 14:59:00,43.2,15.9,30.06,NW,315,3.0,6.0,33,0.01,,,0.02,WUHU216HW,2013-12-11 21:59:00,
2013-12-11 15:04:00,43.2,15.9,30.06,NNW,338,1.0,6.0,33,0.01,,,0.02,WUHU216HW,2013-12-11 22:04:00,
2013-12-11 15:09:00,43.2,15.9,30.06,North,0,2.0,7.0,33,0.01,,,0.02,WUHU216HW,2013-12-11 22:09:00,
2013-12-11 15:14:00,43.2,16.5,30.07,NW,315,4.0,7.0,34,0.01,,,0.02,WUHU216HW,2013-12-11 22:14:00,
2013-12-11 15:19:00,43.2,17.2,30.07,NW,315,5.0,6.0,35,0.01,,,0.02,WUHU216HW,2013-12-11 22:19:00,
2013-12-11 15:24:00,43.0,17.0,30.07,WNW,293,3.0,6.0,35,0.00,,,0.02,WUHU216HW,2013-12-11 22:24:00,
2013-12-11 15:29:00,42.8,16.8,30.07,North,0,3.0,6.0,35,0.00,,,0.02,WUHU216HW,2013-12-11 22:29:00,
2013-12-11 15:34:00,42.8,16.8,30.07,NNW,338,5.0,5.0,35,0.00,,,0.02,WUHU216HW,2013-12-11 22:34:00,
2013-12-11 15:39:00,42.8,17.5,30.07,NNW,338,4.0,6.0,36,0.00,,,0.02,WUHU216HW,2013-12-11 22:39:00,
2013-12-11 15:44:00,42.8,17.5,30.07,NNW,338,5.0,8.0,36,0.00,,,0.02,WUHU216HW,2013-12-11 22:44:00,
2013-12-11 15:49:00,42.7,16.7,30.07,NNW,338,5.0,8.0,35,0.00,,,0.02,WUHU216HW,2013-12-11 22:49:00,
2013-12-11 15:54:00,42.1,16.2,30.07,WNW,293,4.0,6.0,35,0.00,,,0.02,WUHU216HW,2013-12-11 22:54:00,
2013-12-11 15:59:00,41.9,16.0,30.07,NW,315,2.0,6.0,35,0.00,,,0.02,WUHU216HW,2013-12-11 22:59:00,
2013-12-11 16:04:00,41.8,16.6,30.08,North,0,3.0,6.0,36,0.00,,,0.02,WUHU216HW,2013-12-11 23:04:00,
2013-12-11 16:09:00,41.6,16.4,30.08,North,0,2.0,6.0,36,0.00,,,0.02,WUHU216HW,2013-12-11 23:09:00,
2013-12-11 16:14:00,41.4,16.3,30.08,NW,315,2.0,5.0,36,0.00,,,0.02,WUHU216HW,2013-12-11 23:14:00,
2013-12-11 16:19:00,41.4,16.9,30.08,West,270,3.0,5.0,37,0.00,,,0.02,WUHU216HW,2013-12-11 23:19:00,
2013-12-11 16:24:00,41.0,16.6,30.08,North,0,2.0,5.0,37,0.00,,,0.02,WUHU216HW,2013-12-11 23:24:00,
2013-12-11 16:29:00,40.7,16.3,30.08,NW,315,3.0,5.0,37,0.00,,,0.02,WUHU216HW,2013-12-11 23:29:00,
2013-12-11 16:34:00,40.5,16.7,30.08,NNW,338,4.0,5.0,38,0.00,,,0.02,WUHU216HW,2013-12-11 23:34:00,
2013-12-11 16:39:00,40.3,15.9,30.08,NNE,23,2.0,5.0,37,0.00,,,0.02,WUHU216HW,2013-12-11 23:39:00,
2013-12-11 16:44:00,40.1,16.5,30.08,NNW,338,4.0,5.0,38,0.00,,,0.02,WUHU216HW,2013-12-11 23:44:00,
2013-12-11 16:49:00,40.0,16.3,30.08,NW,315,1.0,4.0,38,0.00,,,0.02,WUHU216HW,2013-12-11 23:49:00,
2013-12-11 16:54:00,39.8,16.1,30.08,WNW,293,0.0,4.0,38,0.00,,,0.02,WUHU216HW,2013-12-11 23:54:00,
2013-12-11 16:59:00,39.6,15.9,30.08,NW,315,0.0,2.0,38,0.00,,,0.02,WUHU216HW,2013-12-11 23:59:00,
2013-12-11 17:04:00,39.2,16.3,30.08,NNW,338,1.0,2.0,39,0.00,,,0.02,WUHU216HW,2013-12-12 00:04:00,
2013-12-11 17:09:00,39.1,16.1,30.09,NW,315,0.0,1.0,39,0.00,,,0.02,WUHU216HW,2013-12-12 00:09:00,
2013-12-11 17:14:00,38.7,15.8,30.09,NW,315,0.0,1.0,39,0.00,,,0.02,WUHU216HW,2013-12-12 00:14:00,
2013-12-11 17:19:00,38.2,15.9,30.09,NW,315,0.0,0.0,40,0.00,,,0.02,WUHU216HW,2013-12-12 00:19:00,
2013-12-11 17:24:00,37.6,16.0,30.09,NW,315,0.0,0.0,41,0.00,,,0.02,WUHU216HW,2013-12-12 00:24:00,
2013-12-11 17:29:00,37.1,16.0,30.09,ESE,113,0.0,0.0,42,0.00,,,0.02,WUHU216HW,2013-12-12 00:29:00,
2013-12-11 17:34:00,36.7,15.7,30.09,East,90,0.0,0.0,42,0.00,,,0.02,WUHU216HW,2013-12-12 00:34:00,
2013-12-11 17:39:00,36.4,15.9,30.09,North,0,0.0,0.0,43,0.00,,,0.02,WUHU216HW,2013-12-12 00:39:00,
2013-12-11 17:44:00,36.0,15.6,30.09,NNE,23,0.0,0.0,43,0.00,,,0.02,WUHU216HW,2013-12-12 00:44:00,
2013-12-11 17:49:00,35.5,15.1,30.09,NNE,23,0.0,0.0,43,0.00,,,0.02,WUHU216HW,2013-12-12 00:49:00,
2013-12-11 17:54:00,34.9,15.1,30.09,ENE,68,0.0,0.0,44,0.00,,,0.02,WUHU216HW,2013-12-12 00:54:00,
2013-12-11 17:59:00,34.6,15.8,30.09,ESE,113,0.0,0.0,46,0.00,,,0.02,WUHU216HW,2013-12-12 00:59:00,
2013-12-11 18:04:00,34.2,15.9,30.09,ESE,113,0.0,0.0,47,0.00,,,0.02,WUHU216HW,2013-12-12 01:04:00,
2013-12-11 18:09:00,34.2,16.5,30.09,ESE,113,0.0,0.0,48,0.00,,,0.02,WUHU216HW,2013-12-12 01:09:00,
2013-12-11 18:14:00,34.0,15.8,30.10,East,90,0.0,0.0,47,0.00,,,0.02,WUHU216HW,2013-12-12 01:14:00,
2013-12-11 18:19:00,33.7,15.9,30.10,East,90,0.0,0.0,48,0.00,,,0.02,WUHU216HW,2013-12-12 01:19:00,
2013-12-11 18:24:00,33.5,15.8,30.10,ENE,68,0.0,0.0,48,0.00,,,0.02,WUHU216HW,2013-12-12 01:24:00,
2013-12-11 18:29:00,33.1,15.5,30.10,NE,45,0.0,0.0,48,0.00,,,0.02,WUHU216HW,2013-12-12 01:29:00,
2013-12-11 18:34:00,32.8,16.6,30.10,East,90,1.0,1.0,51,0.00,,,0.02,WUHU216HW,2013-12-12 01:34:00,
2013-12-11 18:39:00,32.8,16.1,30.10,SE,135,0.0,1.0,50,0.00,,,0.02,WUHU216HW,2013-12-12 01:39:00,
2013-12-11 18:44:00,32.4,16.2,30.10,East,90,1.0,1.0,51,0.00,,,0.02,WUHU216HW,2013-12-12 01:44:00,
2013-12-11 18:49:00,32.2,16.1,30.10,East,90,0.0,1.0,51,0.00,,,0.02,WUHU216HW,2013-12-12 01:49:00,
2013-12-11 18:54:00,32.0,15.5,30.10,ENE,68,1.0,1.0,50,0.00,,,0.02,WUHU216HW,2013-12-12 01:54:00,
2013-12-11 18:59:00,31.9,15.8,30.10,ENE,68,1.0,1.0,51,0.00,,,0.02,WUHU216HW,2013-12-12 01:59:00,
2013-12-11 19:04:00,31.5,15.8,30.10,ENE,68,0.0,1.0,52,0.00,,,0.02,WUHU216HW,2013-12-12 02:04:00,
2013-12-11 19:09:00,31.3,15.7,30.10,ENE,68,0.0,1.0,52,0.00,,,0.02,WUHU216HW,2013-12-12 02:09:00,
2013-12-11 19:14:00,31.0,15.8,30.10,NE,45,0.0,0.0,53,0.00,,,0.02,WUHU216HW,2013-12-12 02:14:00,
2013-12-11 19:19:00,31.0,15.4,30.10,NNE,23,0.0,0.0,52,0.00,,,0.02,WUHU216HW,2013-12-12 02:19:00,
2013-12-11 19:24:00,30.8,15.2,30.10,NNE,23,0.0,0.0,52,0.00,,,0.02,WUHU216HW,2013-12-12 02:24:00,
2013-12-11 19:29:00,30.6,15.5,30.10,NNE,23,0.0,0.0,53,0.00,,,0.02,WUHU216HW,2013-12-12 02:29:00,
2013-12-11 19:34:00,30.2,15.1,30.11,NNE,23,0.0,0.0,53,0.00,,,0.02,WUHU216HW,2013-12-12 02:34:00,
2013-12-11 19:39:00,30.1,14.9,30.11,NNW,338,0.0,0.0,53,0.00,,,0.02,WUHU216HW,2013-12-12 02:39:00,
2013-12-11 19:44:00,30.1,15.8,30.11,NNW,338,0.0,1.0,55,0.00,,,0.02,WUHU216HW,2013-12-12 02:44:00,
2013-12-11 19:49:00,30.6,16.3,30.10,NNW,338,2.0,3.0,55,0.00,,,0.02,WUHU216HW,2013-12-12 02:49:00,
2013-12-11 19:54:00,31.3,16.6,30.10,NNW,338,1.0,3.0,54,0.00,,,0.02,WUHU216HW,2013-12-12 02:54:00,
2013-12-11 19:59:00,31.7,16.0,30.11,North,0,1.0,3.0,52,0.00,,,0.02,WUHU216HW,2013-12-12 02:59:00,
2013-12-11 20:04:00,31.7,16.0,30.11,NW,315,1.0,1.0,52,0.00,,,0.02,WUHU216HW,2013-12-12 03:04:00,
2013-12-11 20:09:00,31.5,15.8,30.11,NW,315,1.0,2.0,52,0.00,,,0.02,WUHU216HW,2013-12-12 03:09:00,
2013-12-11 20:14:00,31.3,15.7,30.12,WNW,293,0.0,2.0,52,0.00,,,0.02,WUHU216HW,2013-12-12 03:14:00,
2013-12-11 20:19:00,31.0,15.4,30.12,NW,315,1.0,2.0,52,0.00,,,0.02,WUHU216HW,2013-12-12 03:19:00,
2013-12-11 20:24:00,30.6,15.0,30.12,WNW,293,1.0,2.0,52,0.00,,,0.02,WUHU216HW,2013-12-12 03:24:00,
2013-12-11 20:29:00,30.2,14.7,30.12,NW,315,1.0,3.0,52,0.00,,,0.02,WUHU216HW,2013-12-12 03:29:00,
2013-12-11 20:34:00,29.9,14.8,30.12,NNW,338,1.0,3.0,53,0.00,,,0.02,WUHU216HW,2013-12-12 03:34:00,
2013-12-11 20:39:00,29.9,14.8,30.12,NNW,338,0.0,1.0,53,0.00,,,0.02,WUHU216HW,2013-12-12 03:39:00,
2013-12-11 20:44:00,29.5,14.5,30.12,NNW,338,1.0,2.0,53,0.00,,,0.02,WUHU216HW,2013-12-12 03:44:00,
2013-12-11 20:49:00,29.5,14.9,30.12,NW,315,2.0,3.0,54,0.00,,,0.02,WUHU216HW,2013-12-12 03:49:00,
2013-12-11 20:54:00,29.5,15.3,30.12,NW,315,4.0,5.0,55,0.00,,,0.02,WUHU216HW,2013-12-12 03:54:00,
2013-12-11 20:59:00,29.5,15.7,30.12,NNW,338,3.0,5.0,56,0.00,,,0.02,WUHU216HW,2013-12-12 03:59:00,
2013-12-11 21:04:00,29.3,15.9,30.12,NW,315,3.0,5.0,57,0.00,,,0.02,WUHU216HW,2013-12-12 04:04:00,
2013-12-11 21:09:00,29.2,16.2,30.13,North,0,1.0,3.0,58,0.00,,,0.02,WUHU216HW,2013-12-12 04:09:00,
2013-12-11 21:14:00,29.2,16.2,30.13,North,0,2.0,3.0,58,0.00,,,0.02,WUHU216HW,2013-12-12 04:14:00,
2013-12-11 21:19:00,29.2,16.2,30.13,NNW,338,4.0,4.0,58,0.00,,,0.02,WUHU216HW,2013-12-12 04:19:00,
2013-12-11 21:24:00,29.0,16.0,30.13,NW,315,3.0,4.0,58,0.00,,,0.02,WUHU216HW,2013-12-12 04:24:00,
2013-12-11 21:29:00,28.8,15.8,30.12,NNW,338,2.0,3.0,58,0.00,,,0.02,WUHU216HW,2013-12-12 04:29:00,
2013-12-11 21:34:00,28.8,15.8,30.12,NW,315,3.0,3.0,58,0.00,,,0.02,WUHU216HW,2013-12-12 04:34:00,
2013-12-11 21:39:00,28.6,15.8,30.12,NNW,338,3.0,3.0,58,0.00,,,0.02,WUHU216HW,2013-12-12 04:39:00,
2013-12-11 21:44:00,28.4,16.4,30.12,North,0,1.0,3.0,60,0.00,,,0.02,WUHU216HW,2013-12-12 04:44:00,
2013-12-11 21:49:00,28.4,15.9,30.13,WNW,293,2.0,4.0,59,0.00,,,0.02,WUHU216HW,2013-12-12 04:49:00,
2013-12-11 21:54:00,28.3,15.8,30.13,WNW,293,0.0,4.0,59,0.00,,,0.02,WUHU216HW,2013-12-12 04:54:00,
2013-12-11 21:59:00,28.1,15.6,30.13,NW,315,1.0,3.0,59,0.00,,,0.02,WUHU216HW,2013-12-12 04:59:00,
2013-12-11 22:01:00,28.1,15.6,30.13,NW,315,1.0,3.0,59,0.00,,,0.02,WUHU216HW,2013-12-12 05:01:00,
2013-12-11 22:02:00,28.1,15.6,30.13,NW,315,1.0,3.0,59,0.00,,,0.02,WUHU216HW,2013-12-12 05:02:00,
2013-12-11 22:07:00,27.9,15.4,30.13,NW,315,1.0,3.0,59,0.00,,,0.02,WUHU216HW,2013-12-12 05:07:00,
2013-12-11 22:12:00,27.7,15.2,30.13,WNW,293,1.0,2.0,59,0.00,,,0.02,WUHU216HW,2013-12-12 05:12:00,
2013-12-11 22:17:00,27.7,15.2,30.13,NW,315,1.0,2.0,59,0.00,,,0.02,WUHU216HW,2013-12-12 05:17:00,
2013-12-11 22:22:00,27.7,15.7,30.14,NNW,338,1.0,2.0,60,0.00,,,0.02,WUHU216HW,2013-12-12 05:22:00,
2013-12-11 22:27:00,27.5,15.5,30.14,NW,315,0.0,2.0,60,0.00,,,0.02,WUHU216HW,2013-12-12 05:27:00,
2013-12-11 22:32:00,27.4,15.3,30.14,WNW,293,0.0,2.0,60,0.00,,,0.02,WUHU216HW,2013-12-12 05:32:00,
2013-12-11 22:37:00,27.2,15.1,30.14,NW,315,1.0,3.0,60,0.00,,,0.02,WUHU216HW,2013-12-12 05:37:00,
2013-12-11 22:42:00,27.2,15.1,30.14,NW,315,3.0,3.0,60,0.00,,,0.02,WUHU216HW,2013-12-12 05:42:00,
2013-12-11 22:47:00,27.0,15.3,30.14,NW,315,4.0,4.0,61,0.00,,,0.02,WUHU216HW,2013-12-12 05:47:00,
2013-12-11 22:52:00,27.0,15.3,30.14,NW,315,1.0,4.0,61,0.00,,,0.02,WUHU216HW,2013-12-12 05:52:00,
2013-12-11 22:57:00,27.0,15.3,30.14,WNW,293,1.0,4.0,61,0.00,,,0.02,WUHU216HW,2013-12-12 05:57:00,
2013-12-11 23:02:00,26.8,15.5,30.15,NW,315,2.0,3.0,62,0.00,,,0.02,WUHU216HW,2013-12-12 06:02:00,
2013-12-11 23:07:00,26.8,15.5,30.14,North,0,2.0,3.0,62,0.00,,,0.02,WUHU216HW,2013-12-12 06:07:00,
2013-12-11 23:12:00,26.8,15.5,30.14,North,0,2.0,3.0,62,0.00,,,0.02,WUHU216HW,2013-12-12 06:12:00,
2013-12-11 23:17:00,26.8,15.5,30.14,NW,315,2.0,3.0,62,0.00,,,0.02,WUHU216HW,2013-12-12 06:17:00,
2013-12-11 23:22:00,26.6,15.3,30.14,North,0,1.0,4.0,62,0.00,,,0.02,WUHU216HW,2013-12-12 06:22:00,
2013-12-11 23:27:00,26.6,15.3,30.14,NW,315,3.0,4.0,62,0.00,,,0.02,WUHU216HW,2013-12-12 06:27:00,
2013-12-11 23:32:00,26.5,15.1,30.13,NW,315,4.0,4.0,62,0.00,,,0.02,WUHU216HW,2013-12-12 06:32:00,
2013-12-11 23:37:00,26.3,14.9,30.13,NW,315,1.0,5.0,62,0.00,,,0.02,WUHU216HW,2013-12-12 06:37:00,
2013-12-11 23:42:00,26.3,15.3,30.13,North,0,0.0,5.0,63,0.00,,,0.02,WUHU216HW,2013-12-12 06:42:00,
2013-12-11 23:47:00,26.1,15.1,30.13,NE,45,0.0,3.0,63,0.00,,,0.02,WUHU216HW,2013-12-12 06:47:00,
2013-12-11 23:52:00,25.7,14.9,30.13,NNE,23,1.0,3.0,63,0.00,,,0.02,WUHU216HW,2013-12-12 06:52:00,
2013-12-11 23:57:00,25.7,14.9,30.14,North,0,0.0,2.0,63,0.00,,,0.02,WUHU216HW,2013-12-12 06:57:00,